Location: Andrest
(43.3200°N, 0.0641°E)
Time: 15:19:50
(UTC+00:00)

CZ-4B R/B - Pass Details

Date: 01 December 2020
Orbit: 389 x 457 km, 97.6° (Epoch: 24 January)

Event Time Altitude Azimuth Distance (km) Brightness Sun altitude
Exits shadow 18:29:16 13° 340° (NNW) 1,294 3.8 -22.0°
Maximum altitude 18:31:22 24° 289° (WNW) 886 3.5 -22.4°
Drops below altitude 10° 18:34:00 10° 233° (SW) 1,483 4.9 -22.8°
Sets 18:36:13 0° 219° (SW) 2,354 5.8 -23.2°
